QPF
0.01 0.01 0.01 0.02 0.03 0.06 0.08 0.12 0.14 0.12 0.08 0.05 0.03 0.02 0.01 0.02 0.02 0.02 0.02 0.01 0.03 0.06 0.09 0.11 0.10 0.08 0.07 0.07 0.08 0.08 0.07 0.05 0.03 0.03 0.03 0.03 0.04 0.06 0.11 0.16 0.17 0.14 0.09
0.07 0.08 0.08 0.08 0.08 0.08 0.08 0.11 0.13 0.16 0.12 0.08 0.05 0.06 0.06 0.05 0.04 0.03 0.03 0.02 0.02 0.03 0.04 0.06 0.08 0.08 0.07 0.05 0.06 0.06 0.05 0.04 0.03 0.02 0.02 0.02 0.02 0.02 0.05 0.10 0.14 0.13 0.09
0.23 0.24 0.19 0.12 0.11 0.16 0.18 0.16 0.15 0.17 0.12 0.11 0.11 0.16 0.17 0.14 0.10 0.07 0.06 0.03 0.02 0.01 0.02 0.04 0.06 0.08 0.08 0.08 0.08 0.08 0.07 0.05 0.03 0.01 0.01 0.01 0.01 0.01 0.01 0.03 0.07 0.08 0.06
0.25 0.24 0.14 0.04 0.07 0.18 0.24 0.23 0.20 0.20 0.15 0.16 0.15 0.20 0.22 0.17 0.13 0.09 0.06 0.04 0.03 0.01 0.01 0.04 0.06 0.08 0.10 0.11 0.13 0.13 0.14 0.11 0.06 0.03 0.01 0.01 0.01 0.01 0.01 0.01 0.04 0.05 0.05
0.14 0.15 0.06 0.02 0.09 0.19 0.22 0.24 0.23 0.24 0.18 0.15 0.17 0.16 0.15 0.13 0.10 0.08 0.05 0.04 0.04 0.03 0.02 0.02 0.04 0.07 0.12 0.15 0.16 0.16 0.16 0.16 0.13 0.08 0.04 0.02 0.01 0.01 0.01 0.00 0.02 0.04 0.05
0.04 0.06 0.04 0.03 0.11 0.18 0.15 0.22 0.28 0.29 0.21 0.16 0.23 0.12 0.07 0.06 0.06 0.04 0.03 0.03 0.03 0.02 0.02 0.02 0.02 0.03 0.08 0.13 0.16 0.16 0.15 0.15 0.14 0.12 0.09 0.06 0.04 0.03 0.01 0.00 0.01 0.03 0.03
0.01 0.03 0.02 0.03 0.07 0.09 0.06 0.13 0.20 0.21 0.12 0.22 0.32 0.13 0.05 0.04 0.03 0.02 0.02 0.01 0.02 0.02 0.02 0.02 0.03 0.03 0.03 0.04 0.10 0.14 0.19 0.16 0.11 0.10 0.12 0.11 0.10 0.07 0.03 0.01 0.01 0.01 0.01
0.00 0.01 0.01 0.01 0.02 0.02 0.02 0.04 0.09 0.11 0.07 0.19 0.29 0.24 0.11 0.04 0.03 0.02 0.01 0.01 0.02 0.02 0.03 0.04 0.06 0.05 0.05 0.05 0.05 0.06 0.12 0.18 0.15 0.11 0.11 0.10 0.11 0.10 0.07 0.04 0.01 0.00 0.00
0.00 0.00 0.00 0.00 0.00 0.01 0.00 0.01 0.04 0.07 0.06 0.08 0.19 0.29 0.19 0.06 0.06 0.05 0.03 0.03 0.03 0.03 0.04 0.06 0.09 0.11 0.10 0.09 0.08 0.07 0.06 0.09 0.11 0.12 0.10 0.09 0.08 0.09 0.08 0.07 0.04 0.01 0.01
0.00 0.00 0.00 0.00 0.00 0.00 0.00 0.01 0.02 0.03 0.04 0.04 0.06 0.13 0.19 0.16 0.13 0.07 0.05 0.04 0.04 0.04 0.05 0.07 0.08 0.11 0.12 0.11 0.11 0.12 0.11 0.11 0.09 0.09 0.09 0.09 0.08 0.07 0.06 0.09 0.10 0.06 0.03
0.00 0.00 0.00 0.00 0.00 0.00 0.00 0.01 0.01 0.01 0.03 0.03 0.04 0.06 0.10 0.12 0.12 0.09 0.05 0.03 0.03 0.04 0.05 0.07 0.09 0.11 0.14 0.14 0.15 0.16 0.16 0.16 0.14 0.11 0.07 0.06 0.08 0.09 0.10 0.14 0.22 0.22 0.17
0.00 0.00 0.00 0.00 0.00 0.00 0.00 0.01 0.01 0.01 0.02 0.03 0.03 0.04 0.05 0.06 0.05 0.05 0.04 0.03 0.03 0.05 0.08 0.11 0.15 0.16 0.16 0.16 0.13 0.12 0.12 0.11 0.09 0.08 0.06 0.05 0.07 0.11 0.18 0.25 0.35 0.40 0.39
0.00 0.00 0.00 0.00 0.00 0.00 0.01 0.01 0.01 0.01 0.02 0.02 0.02 0.03 0.03 0.03 0.03 0.03 0.03 0.03 0.04 0.07 0.12 0.16 0.19 0.20 0.16 0.12 0.08 0.06 0.05 0.04 0.03 0.02 0.02 0.02 0.03 0.08 0.17 0.25 0.30 0.34 0.37
0.00 0.00 0.00 0.00 0.00 0.00 0.01 0.01 0.02 0.02 0.03 0.03 0.03 0.03 0.03 0.03 0.04 0.03 0.04 0.05 0.06 0.10 0.17 0.20 0.17 0.16 0.13 0.07 0.05 0.04 0.02 0.01 0.00 0.00 0.00 0.00 0.00 0.02 0.05 0.11 0.18 0.22 0.24
0.00 0.00 0.00 0.00 0.00 0.01 0.01 0.02 0.02 0.02 0.03 0.04 0.04 0.04 0.05 0.05 0.05 0.06 0.07 0.09 0.10 0.15 0.23 0.24 0.18 0.13 0.10 0.06 0.04 0.02 0.01 0.00 0.00 0.00 0.00 0.00 0.00 0.00 0.01 0.01 0.03 0.07 0.10
0.00 0.00 0.00 0.00 0.01 0.01 0.01 0.01 0.02 0.02 0.04 0.05 0.06 0.07 0.08 0.08 0.07 0.08 0.10 0.12 0.13 0.15 0.21 0.18 0.12 0.07 0.05 0.03 0.02 0.01 0.01 0.00 0.00 0.00 0.00 0.00 0.00 0.00 0.00 0.00 0.00 0.01 0.01
0.00 0.00 0.00 0.01 0.01 0.01 0.01 0.02 0.04 0.07 0.11 0.14 0.14 0.13 0.12 0.12 0.12 0.12 0.13 0.15 0.13 0.12 0.12 0.09 0.06 0.04 0.02 0.01 0.00 0.00 0.00 0.00 0.00 0.00 0.00 0.00 0.00 0.00 0.00 0.00 0.00 0.00 0.00
0.00 0.00 0.00 0.00 0.01 0.01 0.02 0.06 0.09 0.12 0.18 0.23 0.24 0.22 0.18 0.15 0.14 0.14 0.15 0.16 0.12 0.08 0.04 0.03 0.02 0.01 0.01 0.00 0.00 0.00 0.00 0.00 0.00 0.00 0.00 0.00 0.00 0.00 0.00 0.00 0.00 0.00 0.00
0.00 0.00 0.00 0.00 0.01 0.03 0.05 0.09 0.13 0.18 0.24 0.31 0.32 0.27 0.21 0.18 0.16 0.16 0.14 0.12 0.08 0.03 0.01 0.01 0.00 0.00 0.00 0.00 0.00 0.00 0.00 0.00 0.00 0.00 0.00 0.00 0.00 0.00 0.00 0.00 0.00 0.00 0.00
0.00 0.00 0.00 0.01 0.02 0.05 0.09 0.12 0.14 0.19 0.24 0.29 0.29 0.22 0.16 0.13 0.10 0.08 0.07 0.06 0.03 0.01 0.00 0.00 0.00 0.00 0.00 0.00 0.00 0.00 0.00 0.00 0.00 0.00 0.00 0.00 0.00 0.00 0.00 0.00 0.00 0.00 0.00
0.00 0.00 0.00 0.01 0.03 0.07 0.10 0.13 0.13 0.13 0.15 0.16 0.13 0.10 0.07 0.05 0.04 0.03 0.02 0.01 0.01 0.00 0.00 0.00 0.00 0.00 0.00 0.00 0.00 0.00 0.00 0.00 0.00 0.00 0.00 0.00 0.00 0.00 0.00 0.00 0.00 0.00 0.00
0.00 0.00 0.00 0.00 0.02 0.04 0.09 0.12 0.09 0.06 0.05 0.06 0.06 0.04 0.03 0.02 0.02 0.02 0.01 0.00 0.00 0.00 0.00 0.00 0.00 0.00 0.00 0.00 0.00 0.00 0.00 0.00 0.00 0.00 0.00 0.00 0.00 0.00 0.00 0.00 0.00 0.00 0.00
0.00 0.00 0.00 0.00 0.01 0.02 0.03 0.04 0.04 0.02 0.01 0.02 0.02 0.02 0.02 0.02 0.01 0.01 0.00 0.00 0.00 0.00 0.00 0.00 0.00 0.00 0.00 0.00 0.00 0.00 0.00 0.00 0.00 0.00 0.00 0.00 0.00 0.00 0.00 0.00 0.00 0.00 0.00
0.00 0.00 0.00 0.00 0.00 0.01 0.01 0.01 0.01 0.01 0.01 0.01 0.01 0.01 0.01 0.01 0.01 0.00 0.00 0.00 0.00 0.00 0.00 0.00 0.00 0.00 0.00 0.00 0.00 0.00 0.00 0.00 0.00 0.00 0.00 0.00 0.00 0.00 0.00 0.00 0.00 0.00 0.00
0.00 0.00 0.00 0.00 0.00 0.00 0.00 0.00 0.00 0.00 0.00 0.00 0.00 0.00 0.00 0.00 0.00 0.00 0.00 0.00 0.00 0.00 0.00 0.00 0.00 0.00 0.00 0.00 0.00 0.00 0.00 0.00 0.00 0.00 0.00 0.00 0.00 0.00 0.00 0.00 0.00 0.00 0.00
0.01 0.00 0.00 0.00 0.00 0.00 0.00 0.00 0.00 0.00 0.00 0.00 0.00 0.00 0.00 0.00 0.00 0.00 0.00 0.00 0.00 0.00 0.00 0.00 0.00 0.00 0.00 0.00 0.00 0.00 0.00 0.00 0.00 0.00 0.00 0.00 0.00 0.00 0.00 0.00 0.00 0.00 0.00
MSLP
1013.88 1013.94 1013.92 1013.85 1013.74 1013.61 1013.50 1013.41 1013.35 1013.31 1013.30 1013.30 1013.30 1013.30 1013.31 1013.32 1013.33 1013.32 1013.30 1013.25 1013.16 1013.05 1012.92 1012.79 1012.69 1012.66 1012.70 1012.83 1013.04 1013.32 1013.63 1013.96 1014.28 1014.57 1014.82 1015.06 1015.28 1015.51 1015.75 1016.02 1016.30 1016.60 1016.91
1013.39 1013.43 1013.42 1013.35 1013.26 1013.15 1013.04 1012.95 1012.88 1012.84 1012.81 1012.80 1012.81 1012.81 1012.82 1012.83 1012.83 1012.81 1012.77 1012.70 1012.59 1012.47 1012.34 1012.21 1012.12 1012.09 1012.14 1012.27 1012.47 1012.73 1013.04 1013.35 1013.66 1013.95 1014.22 1014.47 1014.70 1014.93 1015.18 1015.44 1015.72 1016.01 1016.31
1012.87 1012.89 1012.87 1012.83 1012.76 1012.68 1012.59 1012.51 1012.44 1012.39 1012.36 1012.34 1012.34 1012.34 1012.35 1012.34 1012.33 1012.29 1012.22 1012.13 1012.01 1011.87 1011.73 1011.61 1011.52 1011.49 1011.54 1011.65 1011.84 1012.08 1012.37 1012.67 1012.97 1013.26 1013.54 1013.79 1014.04 1014.29 1014.54 1014.79 1015.07 1015.36 1015.66
1012.35 1012.34 1012.33 1012.30 1012.25 1012.20 1012.13 1012.07 1012.00 1011.96 1011.92 1011.90 1011.89 1011.88 1011.87 1011.85 1011.82 1011.76 1011.67 1011.55 1011.41 1011.26 1011.11 1010.98 1010.88 1010.85 1010.87 1010.97 1011.13 1011.35 1011.61 1011.89 1012.18 1012.48 1012.76 1013.04 1013.30 1013.56 1013.82 1014.09 1014.37 1014.66 1014.98
1011.86 1011.82 1011.79 1011.77 1011.74 1011.71 1011.66 1011.61 1011.56 1011.51 1011.47 1011.44 1011.42 1011.41 1011.39 1011.36 1011.31 1011.24 1011.13 1010.99 1010.83 1010.66 1010.50 1010.35 1010.24 1010.18 1010.18 1010.24 1010.37 1010.55 1010.77 1011.04 1011.32 1011.61 1011.91 1012.20 1012.49 1012.76 1013.04 1013.32 1013.61 1013.93 1014.26
1011.42 1011.34 1011.28 1011.25 1011.23 1011.20 1011.17 1011.12 1011.08 1011.03 1010.99 1010.96 1010.94 1010.92 1010.90 1010.87 1010.82 1010.74 1010.62 1010.47 1010.30 1010.12 1009.93 1009.76 1009.63 1009.53 1009.49 1009.51 1009.59 1009.73 1009.92 1010.15 1010.42 1010.72 1011.02 1011.33 1011.63 1011.93 1012.22 1012.51 1012.82 1013.15 1013.51
1011.07 1010.92 1010.82 1010.76 1010.72 1010.68 1010.64 1010.60 1010.55 1010.50 1010.46 1010.43 1010.42 1010.41 1010.41 1010.39 1010.35 1010.28 1010.17 1010.02 1009.85 1009.66 1009.46 1009.27 1009.10 1008.97 1008.89 1008.85 1008.88 1008.97 1009.11 1009.31 1009.56 1009.84 1010.15 1010.46 1010.78 1011.08 1011.39 1011.69 1012.00 1012.34 1012.71
1010.79 1010.58 1010.43 1010.31 1010.23 1010.16 1010.10 1010.04 1009.98 1009.92 1009.89 1009.87 1009.88 1009.89 1009.92 1009.93 1009.92 1009.87 1009.79 1009.66 1009.50 1009.31 1009.11 1008.90 1008.71 1008.55 1008.42 1008.33 1008.30 1008.33 1008.43 1008.59 1008.80 1009.06 1009.35 1009.66 1009.97 1010.28 1010.57 1010.87 1011.18 1011.51 1011.88
1010.61 1010.32 1010.10 1009.92 1009.78 1009.66 1009.55 1009.46 1009.37 1009.31 1009.28 1009.28 1009.31 1009.37 1009.43 1009.49 1009.52 1009.52 1009.47 1009.38 1009.24 1009.08 1008.88 1008.68 1008.48 1008.29 1008.12 1007.99 1007.91 1007.89 1007.93 1008.04 1008.21 1008.43 1008.70 1008.98 1009.26 1009.54 1009.82 1010.09 1010.38 1010.69 1011.05
1010.49 1010.14 1009.84 1009.58 1009.36 1009.17 1009.01 1008.87 1008.76 1008.68 1008.66 1008.68 1008.74 1008.84 1008.95 1009.06 1009.15 1009.20 1009.20 1009.15 1009.06 1008.93 1008.77 1008.58 1008.39 1008.19 1008.01 1007.85 1007.73 1007.66 1007.65 1007.70 1007.82 1007.99 1008.21 1008.44 1008.69 1008.93 1009.16 1009.40 1009.64 1009.92 1010.25
1010.41 1010.00 1009.63 1009.29 1008.99 1008.72 1008.49 1008.29 1008.15 1008.06 1008.03 1008.07 1008.17 1008.31 1008.47 1008.63 1008.77 1008.88 1008.94 1008.95 1008.91 1008.83 1008.71 1008.57 1008.40 1008.23 1008.05 1007.88 1007.73 1007.63 1007.57 1007.57 1007.63 1007.75 1007.90 1008.08 1008.27 1008.46 1008.64 1008.83 1009.02 1009.26 1009.54
1010.34 1009.89 1009.45 1009.04 1008.66 1008.31 1008.00 1007.75 1007.56 1007.45 1007.42 1007.47 1007.59 1007.77 1007.98 1008.19 1008.38 1008.54 1008.65 1008.72 1008.74 1008.72 1008.67 1008.59 1008.47 1008.34 1008.19 1008.03 1007.89 1007.76 1007.67 1007.62 1007.62 1007.68 1007.77 1007.89 1008.02 1008.16 1008.29 1008.43 1008.58 1008.77 1009.01
1010.25 1009.77 1009.28 1008.81 1008.35 1007.93 1007.56 1007.25 1007.02 1006.88 1006.84 1006.90 1007.04 1007.25 1007.49 1007.74 1007.97 1008.18 1008.34 1008.47 1008.55 1008.60 1008.62 1008.61 1008.56 1008.49 1008.39 1008.27 1008.14 1008.01 1007.89 1007.81 1007.77 1007.77 1007.81 1007.87 1007.95 1008.04 1008.13 1008.23 1008.34 1008.49 1008.69
1010.11 1009.62 1009.11 1008.60 1008.09 1007.60 1007.17 1006.81 1006.54 1006.37 1006.33 1006.39 1006.54 1006.76 1007.02 1007.30 1007.56 1007.80 1008.01 1008.19 1008.33 1008.45 1008.55 1008.62 1008.66 1008.66 1008.63 1008.55 1008.45 1008.34 1008.22 1008.11 1008.03 1007.99 1007.99 1008.01 1008.06 1008.12 1008.18 1008.26 1008.35 1008.47 1008.64
1009.92 1009.45 1008.94 1008.40 1007.86 1007.34 1006.86 1006.46 1006.16 1005.97 1005.91 1005.96 1006.11 1006.34 1006.61 1006.90 1007.19 1007.46 1007.70 1007.92 1008.12 1008.30 1008.48 1008.63 1008.75 1008.84 1008.87 1008.86 1008.80 1008.71 1008.59 1008.48 1008.39 1008.32 1008.29 1008.30 1008.32 1008.37 1008.43 1008.50 1008.58 1008.69 1008.83
1009.68 1009.25 1008.77 1008.24 1007.70 1007.16 1006.66 1006.24 1005.91 1005.70 1005.63 1005.67 1005.82 1006.04 1006.31 1006.61 1006.90 1007.19 1007.45 1007.71 1007.96 1008.20 1008.44 1008.67 1008.87 1009.03 1009.14 1009.19 1009.17 1009.11 1009.02 1008.90 1008.81 1008.73 1008.69 1008.69 1008.72 1008.77 1008.84 1008.92 1009.00 1009.10 1009.21
1009.41 1009.05 1008.62 1008.14 1007.62 1007.10 1006.60 1006.17 1005.84 1005.62 1005.53 1005.56 1005.69 1005.91 1006.17 1006.46 1006.76 1007.05 1007.33 1007.61 1007.90 1008.19 1008.48 1008.77 1009.04 1009.27 1009.44 1009.54 1009.57 1009.53 1009.46 1009.36 1009.27 1009.20 1009.16 1009.17 1009.21 1009.28 1009.36 1009.45 1009.54 1009.62 1009.71
1009.13 1008.86 1008.51 1008.10 1007.64 1007.16 1006.70 1006.28 1005.95 1005.73 1005.63 1005.64 1005.76 1005.96 1006.21 1006.49 1006.78 1007.07 1007.36 1007.66 1007.97 1008.29 1008.63 1008.96 1009.28 1009.55 1009.77 1009.91 1009.97 1009.97 1009.91 1009.83 1009.75 1009.69 1009.67 1009.69 1009.74 1009.83 1009.93 1010.02 1010.11 1010.17 1010.22
1008.84 1008.67 1008.43 1008.12 1007.75 1007.34 1006.93 1006.55 1006.24 1006.02 1005.92 1005.92 1006.02 1006.20 1006.43 1006.70 1006.97 1007.25 1007.54 1007.85 1008.16 1008.51 1008.86 1009.23 1009.57 1009.88 1010.12 1010.29 1010.38 1010.40 1010.36 1010.29 1010.22 1010.17 1010.16 1010.20 1010.27 1010.36 1010.47 1010.56 1010.63 1010.66 1010.66
1008.54 1008.48 1008.36 1008.17 1007.91 1007.60 1007.26 1006.94 1006.67 1006.47 1006.37 1006.37 1006.45 1006.60 1006.81 1007.05 1007.30 1007.57 1007.85 1008.14 1008.46 1008.81 1009.17 1009.54 1009.90 1010.22 1010.48 1010.67 1010.77 1010.81 1010.78 1010.73 1010.67 1010.63 1010.63 1010.67 1010.74 1010.84 1010.94 1011.02 1011.05 1011.04 1010.98
1008.19 1008.25 1008.26 1008.20 1008.07 1007.87 1007.63 1007.39 1007.17 1007.01 1006.92 1006.91 1006.98 1007.12 1007.29 1007.50 1007.73 1007.97 1008.23 1008.51 1008.82 1009.16 1009.51 1009.88 1010.24 1010.56 1010.82 1011.02 1011.13 1011.17 1011.16 1011.11 1011.06 1011.03 1011.04 1011.08 1011.15 1011.24 1011.32 1011.37 1011.36 1011.30 1011.17
1007.77 1007.95 1008.08 1008.15 1008.15 1008.08 1007.95 1007.80 1007.66 1007.55 1007.49 1007.50 1007.56 1007.68 1007.83 1008.01 1008.21 1008.42 1008.65 1008.91 1009.19 1009.51 1009.85 1010.21 1010.55 1010.87 1011.13 1011.32 1011.44 1011.49 1011.49 1011.45 1011.41 1011.39 1011.39 1011.43 1011.49 1011.56 1011.61 1011.63 1011.58 1011.47 1011.28
1007.27 1007.53 1007.77 1007.97 1008.09 1008.15 1008.15 1008.11 1008.06 1008.03 1008.02 1008.05 1008.12 1008.23 1008.36 1008.52 1008.68 1008.87 1009.07 1009.30 1009.56 1009.85 1010.17 1010.50 1010.83 1011.14 1011.39 1011.59 1011.71 1011.77 1011.77 1011.75 1011.72 1011.70 1011.70 1011.73 1011.78 1011.83 1011.86 1011.84 1011.75 1011.59 1011.36
1006.66 1006.98 1007.31 1007.60 1007.85 1008.03 1008.16 1008.25 1008.31 1008.37 1008.43 1008.51 1008.62 1008.73 1008.86 1009.00 1009.14 1009.30 1009.47 1009.67 1009.90 1010.17 1010.46 1010.78 1011.09 1011.38 1011.63 1011.83 1011.95 1012.02 1012.04 1012.03 1012.01 1011.99 1012.00 1012.03 1012.06 1012.09 1012.10 1012.05 1011.93 1011.74 1011.47
1005.97 1006.32 1006.69 1007.07 1007.41 1007.72 1007.98 1008.20 1008.39 1008.56 1008.72 1008.87 1009.02 1009.17 1009.31 1009.44 1009.57 1009.71 1009.86 1010.04 1010.24 1010.49 1010.76 1011.06 1011.36 1011.64 1011.88 1012.08 1012.21 1012.29 1012.32 1012.32 1012.31 1012.30 1012.31 1012.33 1012.36 1012.37 1012.36 1012.29 1012.15 1011.94 1011.66
1005.24 1005.58 1005.97 1006.39 1006.82 1007.23 1007.62 1007.97 1008.30 1008.60 1008.87 1009.12 1009.34 1009.54 1009.71 1009.86 1009.99 1010.12 1010.25 1010.41 1010.60 1010.83 1011.09 1011.37 1011.66 1011.93 1012.17 1012.37 1012.51 1012.59 1012.64 1012.65 1012.64 1012.64 1012.65 1012.67 1012.68 1012.69 1012.66 1012.58 1012.43 1012.22 1011.93
Thickness
5754 5752 5752 5751 5750 5748 5748 5748 5748 5748 5749 5749 5748 5748 5748 5748 5747 5747 5747 5748 5748 5749 5750 5750 5751 5751 5751 5751 5750 5749 5747 5745 5743 5741 5739 5737 5737 5736 5735 5734 5732 5729 5727
5750 5748 5748 5748 5747 5745 5744 5744 5744 5744 5744 5745 5745 5745 5745 5745 5745 5745 5745 5746 5747 5748 5749 5750 5751 5751 5751 5751 5750 5749 5748 5746 5744 5742 5740 5738 5737 5736 5736 5735 5734 5731 5729
5744 5744 5743 5744 5744 5742 5741 5741 5741 5740 5740 5740 5741 5741 5740 5740 5741 5742 5743 5743 5744 5746 5747 5748 5750 5751 5751 5750 5750 5749 5748 5747 5745 5743 5741 5740 5738 5737 5736 5735 5734 5733 5731
5739 5738 5738 5740 5740 5738 5738 5737 5737 5736 5736 5736 5736 5736 5736 5736 5738 5739 5739 5740 5741 5742 5744 5746 5748 5749 5749 5750 5749 5749 5748 5747 5746 5744 5742 5741 5739 5738 5737 5736 5735 5733 5732
5734 5733 5733 5735 5735 5734 5734 5733 5733 5732 5732 5733 5732 5732 5732 5732 5733 5734 5735 5737 5737 5739 5740 5742 5743 5745 5747 5748 5748 5748 5747 5746 5745 5744 5743 5741 5740 5739 5737 5736 5735 5734 5733
5728 5727 5727 5728 5728 5728 5728 5728 5727 5728 5728 5729 5728 5729 5730 5730 5731 5731 5732 5733 5734 5735 5736 5737 5739 5741 5743 5745 5745 5746 5745 5744 5744 5744 5744 5743 5741 5740 5738 5737 5735 5735 5734
5721 5720 5720 5720 5721 5721 5722 5722 5722 5721 5722 5722 5718 5720 5724 5726 5727 5728 5728 5729 5730 5731 5732 5733 5735 5737 5739 5740 5742 5742 5742 5743 5743 5743 5744 5743 5742 5740 5739 5737 5736 5735 5734
5714 5714 5714 5714 5714 5715 5716 5716 5715 5715 5716 5716 5711 5708 5709 5714 5720 5723 5723 5724 5724 5725 5726 5728 5729 5732 5734 5735 5737 5738 5738 5740 5741 5742 5742 5743 5742 5741 5739 5737 5736 5734 5733
5706 5706 5707 5707 5708 5709 5710 5711 5710 5709 5709 5710 5708 5703 5700 5702 5708 5712 5716 5716 5717 5717 5719 5721 5724 5726 5728 5729 5730 5732 5733 5735 5737 5739 5740 5741 5741 5740 5739 5737 5735 5733 5732
5697 5697 5698 5700 5701 5702 5703 5705 5706 5705 5704 5703 5703 5702 5702 5702 5698 5700 5704 5707 5708 5709 5711 5713 5716 5718 5719 5720 5722 5724 5726 5728 5729 5732 5735 5737 5738 5738 5738 5736 5734 5733 5731
5689 5689 5690 5692 5693 5695 5697 5698 5699 5699 5699 5699 5697 5696 5695 5695 5695 5692 5693 5696 5698 5701 5703 5704 5706 5709 5711 5711 5713 5715 5717 5718 5720 5722 5726 5729 5733 5735 5735 5735 5733 5732 5730
5682 5681 5682 5683 5685 5687 5689 5691 5692 5693 5694 5694 5693 5692 5690 5689 5689 5688 5687 5688 5688 5690 5693 5694 5696 5699 5701 5702 5704 5706 5707 5708 5710 5713 5717 5721 5725 5728 5730 5731 5731 5730 5729
5675 5674 5674 5675 5677 5679 5682 5684 5685 5687 5687 5687 5687 5686 5686 5685 5685 5684 5682 5681 5680 5680 5682 5683 5685 5688 5691 5692 5693 5695 5697 5698 5701 5703 5707 5711 5715 5719 5722 5724 5725 5725 5725
5669 5668 5667 5668 5669 5672 5674 5676 5677 5679 5680 5680 5680 5680 5679 5679 5679 5679 5677 5674 5671 5670 5671 5671 5674 5677 5680 5682 5683 5685 5686 5688 5691 5693 5697 5701 5705 5708 5711 5713 5714 5715 5716
5664 5663 5662 5661 5662 5664 5666 5668 5669 5670 5672 5673 5673 5672 5671 5671 5672 5672 5671 5670 5667 5663 5661 5662 5663 5666 5669 5671 5673 5675 5677 5679 5681 5684 5687 5691 5694 5697 5699 5701 5702 5703 5704
5659 5657 5656 5655 5656 5657 5659 5660 5661 5663 5663 5664 5664 5664 5663 5663 5663 5663 5663 5663 5663 5661 5656 5654 5655 5656 5659 5661 5663 5665 5667 5669 5671 5674 5677 5680 5683 5685 5687 5689 5690 5692 5693
5654 5652 5650 5649 5649 5651 5652 5653 5654 5655 5655 5656 5656 5655 5655 5655 5655 5655 5656 5656 5655 5655 5649 5645 5646 5647 5649 5651 5653 5655 5656 5658 5660 5663 5666 5668 5671 5673 5675 5677 5678 5680 5682
5649 5647 5645 5643 5643 5645 5645 5646 5646 5647 5646 5647 5646 5646 5646 5647 5647 5647 5647 5647 5646 5646 5643 5638 5637 5638 5639 5641 5643 5644 5646 5648 5649 5651 5654 5656 5659 5661 5662 5664 5666 5668 5670
5644 5642 5640 5638 5637 5638 5638 5638 5638 5637 5638 5637 5637 5637 5638 5638 5637 5638 5639 5637 5636 5635 5635 5633 5630 5630 5630 5631 5633 5634 5636 5637 5640 5641 5643 5645 5646 5648 5650 5652 5653 5655 5657
5639 5637 5635 5633 5631 5631 5630 5629 5628 5627 5627 5627 5627 5628 5629 5630 5630 5630 5630 5628 5627 5625 5625 5624 5623 5622 5622 5623 5625 5626 5626 5628 5630 5632 5633 5634 5636 5638 5640 5641 5642 5644 5646
5634 5632 5630 5628 5626 5624 5622 5620 5620 5619 5619 5618 5618 5619 5620 5622 5623 5623 5623 5621 5620 5618 5617 5616 5615 5615 5615 5616 5617 5618 5619 5621 5621 5622 5624 5625 5627 5628 5629 5630 5631 5632 5634
5628 5626 5624 5622 5620 5618 5615 5614 5613 5612 5611 5611 5610 5610 5611 5613 5614 5614 5614 5614 5614 5613 5611 5610 5608 5608 5607 5609 5610 5612 5613 5615 5614 5613 5615 5615 5617 5617 5617 5617 5618 5620 5622
5621 5619 5617 5615 5613 5610 5608 5607 5606 5605 5604 5603 5603 5603 5604 5604 5605 5605 5604 5605 5605 5606 5607 5606 5604 5603 5603 5604 5605 5606 5605 5605 5603 5602 5605 5606 5606 5605 5605 5604 5606 5607 5608
5613 5612 5611 5609 5607 5604 5602 5600 5599 5597 5595 5594 5594 5595 5595 5595 5596 5598 5597 5596 5596 5596 5598 5599 5600 5598 5599 5599 5600 5600 5599 5597 5595 5594 5596 5597 5595 5594 5594 5593 5593 5593 5594
5605 5605 5605 5603 5601 5598 5596 5593 5592 5590 5587 5585 5586 5587 5588 5589 5590 5592 5592 5590 5589 5589 5590 5592 5592 5593 5593 5594 5595 5595 5593 5592 5590 5588 5586 5586 5585 5583 5583 5581 5580 5579 5579
5597 5598 5597 5597 5595 5593 5590 5588 5586 5585 5581 5578 5577 5579 5581 5583 5584 5586 5587 5587 5585 5583 5584 5585 5586 5586 5587 5587 5588 5588 5587 5585 5582 5580 5576 5575 5574 5573 5573 5570 5567 5565 5565